Location: Pouilly
(47.2624°N, 4.5558°E)
Time: 21:00:25
(UTC+00:00)

STARLINK-1273 - Pass Details

Date: 07 June 2020
Orbit: 549 x 550 km, 53.0° (Epoch: 09 July)

Event Time Altitude Azimuth Distance (km) Brightness Sun altitude
Exits shadow 00:04:59 - 110° (ESE) 1,882 6.2 -19.7°
Enters shadow 01:06:14 -65° 236° (SW) 12,110 10.4 -17.4°
Maximum altitude 01:42:30 54° 144° (SE) 672 3.9 -14.8°
